Philip, SD

10:43 PM MDT on May 25, 2017 (GMT -0600)
Philip

Weather History for KPHP - May, 2013

Change the Weather History Date:

Monday, May 13, 2013

  Actual Average Record
Temperature  
Mean Temperature 73 °F 56 °F  
Max Temperature 95 °F 70 °F 97 °F (2001)
Min Temperature 50 °F 43 °F 24 °F (1953)
Degree Days  
Heating Degree Days 0 10  
Month to date heating degree days 195 148  
Since 1 July heating degree days 6945 7015  
Cooling Degree Days 8 1  
Month to date cooling degree days 8 8  
Year to date cooling degree days 8 11  
Growing Degree Days 24 (Base 50)    
Moisture  
Dew Point 42 °F    
Average Humidity 38    
Maximum Humidity 59    
Minimum Humidity 16    
Precipitation  
Precipitation 0.00 in 0.10 in 1.78 in (1982)
Month to date precipitation 0.03 1.29  
Year to date precipitation 3.21 5.18  
Sea Level Pressure  
Sea Level Pressure 29.79 in    
Wind  
Wind Speed 9 mph (West)    
Max Wind Speed 23 mph    
Max Gust Speed 29 mph    
Visibility 10 miles    
Events      
T = Trace of Precipitation, MM = Missing Value Source: NWS Daily Summary

Daily Weather History Graph

Daily Weather History Graph

Search for Another Location

Airport or City:

Trip Planner

Search our weather history database for the weather conditions in past years. The results will help you decide how hot, cold, wet, or windy it might be!

Date:

Astronomy

May. 13, 2013 Rise Set
Actual Time 5:22 AM MDT 8:04 PM MDT
Civil Twilight 4:48 AM MDT 8:37 PM MDT
Nautical Twilight 4:07 AM MDT 9:19 PM MDT
Astronomical Twilight 3:19 AM MDT 10:07 PM MDT
Moon 8:09 AM MDT (5/13) 11:14 PM MDT (5/13)
Length of Visible Light 15h 48m
Length of Day
14h 42m
Waxing Crescent, 12% of the Moon is Illuminated
May 13
Waxing Crescent
May 17
First Quarter
May 24
Full
May 31
Last Quarter
Jun 8
New

Hourly Weather History & Observations

Time (MDT) Temp. Dew Point Humidity Pressure Visibility Wind Dir Wind Speed Gust Speed Precip Events Conditions
12:55 AM 57.0 °F 35.1 °F 44% 29.90 in 10.0 mi Calm Calm - N/A   Scattered Clouds
1:55 AM 54.0 °F 36.0 °F 51% 29.87 in 10.0 mi Calm Calm - N/A   Partly Cloudy
2:55 AM 59.0 °F 37.0 °F 44% 29.83 in 10.0 mi SSW 6.9 mph - N/A   Scattered Clouds
3:55 AM 55.9 °F 37.9 °F 51% 29.82 in 10.0 mi Calm Calm - N/A   Clear
4:55 AM 52.0 °F 37.0 °F 57% 29.81 in 10.0 mi Calm Calm - N/A   Clear
5:55 AM 54.0 °F 39.0 °F 57% 29.81 in 10.0 mi West 6.9 mph - N/A   Unknown
6:55 AM 61.0 °F 42.1 °F 50% 29.83 in 10.0 mi West 9.2 mph - N/A   Clear
7:55 AM 66.0 °F 44.1 °F 45% 29.84 in 10.0 mi West 15.0 mph - N/A   Clear
8:55 AM 77.0 °F 46.9 °F 34% 29.83 in 10.0 mi West 13.8 mph - N/A   Clear
9:55 AM 86.0 °F 45.0 °F 24% 29.82 in 10.0 mi NW 17.3 mph - N/A   Clear
10:55 AM 89.1 °F 45.0 °F 22% 29.83 in 10.0 mi NNW 16.1 mph - N/A   Clear
11:55 AM 90.0 °F 44.1 °F 20% 29.83 in 10.0 mi NNW 11.5 mph - N/A   Clear
12:55 PM 91.9 °F 43.0 °F 18% 29.81 in 10.0 mi WNW 18.4 mph 27.6 mph N/A   Clear
2:55 PM 95.0 °F 42.1 °F 16% 29.79 in 10.0 mi NNW 18.4 mph 23.0 mph N/A   Clear
3:55 PM 95.0 °F 42.1 °F 16% 29.78 in 10.0 mi NNW 12.7 mph 18.4 mph N/A   Clear
4:55 PM 93.0 °F 41.0 °F 16% 29.78 in 10.0 mi NNW 10.4 mph 19.6 mph N/A   Clear
6:55 PM 89.1 °F 45.0 °F 22% 29.74 in 10.0 mi Calm Calm - N/A   Clear
7:55 PM 82.0 °F 45.0 °F 27% 29.73 in 10.0 mi ESE 3.5 mph - N/A   Clear
8:55 PM 73.0 °F 46.0 °F 38% 29.73 in 10.0 mi SE 4.6 mph - N/A   Clear
9:55 PM 72.0 °F 45.0 °F 38% 29.71 in 10.0 mi SE 4.6 mph - N/A   Clear
10:55 PM 73.0 °F 44.1 °F 35% 29.68 in 10.0 mi SE 5.8 mph - N/A   Clear
11:55 PM 70.0 °F 44.1 °F 39% 29.66 in 10.0 mi South 10.4 mph - N/A   Clear